Location: Iesi
(43.5167°N, 13.2333°E)
Time: 03:36:29
(UTC+00:00)

Cosmos 2322 - Pass Details

Date: 08 August 2020
Orbit: 842 x 853 km, 71.0° (Epoch: 27 September)

Event Time Altitude Azimuth Distance (km) Brightness Sun altitude
Rises 23:23:04 0° 331° (NNW) 3,410 7.7 -30.7°
Reaches altitude 10° 23:25:34 10° 327° (NNW) 2,470 6.7 -30.6°
Enters shadow 23:29:37 43° 297° (WNW) 1,176 4.5 -30.6°
